CW3794 Weather Reports


time (UTC)temp
C
wind
direction
speed
KPH
gust
KPH
rain 1hr
cm
rain 24hr
cm
rain mn
cm
humidity
%
barometer
mb
20260502130404 22 292 0.0 0.0 0.00 0.00 0.00 28 1010.7
20260502123404 20 290 0.0 0.0 0.00 0.00 0.00 30 1010.5
20260502122404 20 290 0.0 0.0 0.00 0.00 0.00 31 1010.3
20260502121904 20 290 0.0 0.0 0.00 0.00 0.00 31 1010.3
20260502121404 20 290 0.0 0.0 0.00 0.00 0.00 31 1010.2
20260502120904 19 290 0.0 0.0 0.00 0.00 0.00 31 1010.2
20260502120404 19 290 0.0 0.0 0.00 0.00 0.00 32 1010.3
20260502115904 20 290 0.0 0.0 0.00 0.00 0.00 32 1010.2
20260502115404 20 290 0.0 0.0 0.00 0.00 0.00 32 1010.1
20260502114904 19 290 0.0 0.0 0.00 0.00 0.00 32 1010.1
20260502114405 19 290 0.0 0.0 0.00 0.00 0.00 32 1010.1
20260502113904 19 290 0.0 0.0 0.00 0.00 0.00 33 1010.0
20260502113404 20 290 0.0 0.0 0.00 0.00 0.00 32 1010.0
20260502112904 20 289 0.0 0.0 0.00 0.00 0.00 32 1009.9
20260502112404 21 290 0.0 0.0 0.00 0.00 0.00 30 1009.9
20260502111904 21 290 0.0 0.0 0.00 0.00 0.00 29 1009.9
20260502111404 21 290 0.0 0.0 0.00 0.00 0.00 29 1009.9
20260502110904 21 290 0.0 0.0 0.00 0.00 0.00 29 1009.8
20260502110404 20 290 0.0 0.0 0.00 0.00 0.00 30 1009.8
20260502105904 20 290 0.0 0.0 0.00 0.00 0.00 30 1009.9
20260502105404 20 290 0.0 0.0 0.00 0.00 0.00 31 1009.8
20260502104404 20 290 0.0 0.0 0.00 0.00 0.00 31 1009.9
20260502103905 21 290 0.0 0.0 0.00 0.00 0.00 30 1009.8
20260502103405 21 290 0.0 0.0 0.00 0.00 0.00 30 1009.8
20260502102904 21 291 0.0 0.0 0.00 0.00 0.00 30 1009.7
20260502102404 21 290 0.0 0.0 0.00 0.00 0.00 30 1009.7
20260502101904 21 290 0.0 0.0 0.00 0.00 0.00 30 1009.7
20260502101405 21 290 0.0 0.0 0.00 0.00 0.00 29 1009.6
20260502100905 22 290 0.0 0.0 0.00 0.00 0.00 29 1009.5
20260502100404 22 290 0.0 0.0 0.00 0.00 0.00 28 1009.5
20260502091404 23 290 0.0 0.0 0.00 0.00 0.00 27 1009.4
20260502090904 23 290 0.0 0.0 0.00 0.00 0.00 27 1009.4
20260502071404 22 290 0.0 14.5 0.00 0.00 0.00 30 1009.4
20260502070904 22 281 1.6 8.0 0.00 0.00 0.00 31 1009.4
20260502070404 22 254 0.0 0.0 0.00 0.00 0.00 32 1009.2
20260502065404 22 254 0.0 0.0 0.00 0.00 0.00 32 1009.1
20260502064904 22 254 0.0 0.0 0.00 0.00 0.00 33 1009.1
20260502064405 22 255 0.0 0.0 0.00 0.00 0.00 33 1009.1
20260502063903 22 255 0.0 0.0 0.00 0.00 0.00 32 1009.0
20260502062904 22 255 0.0 0.0 0.00 0.00 0.00 32 1008.9
20260502062404 22 255 0.0 0.0 0.00 0.00 0.00 32 1008.9
20260502061904 22 255 0.0 0.0 0.00 0.00 0.00 32 1008.9
20260502061404 22 255 0.0 0.0 0.00 0.00 0.00 32 1008.8
20260502060904 22 255 0.0 0.0 0.00 0.00 0.00 32 1008.8
20260502055904 22 254 0.0 0.0 0.00 0.00 0.00 32 1008.6
20260502055403 22 255 0.0 0.0 0.00 0.00 0.00 31 1008.6
20260502054904 22 255 0.0 0.0 0.00 0.00 0.00 31 1008.5
20260502053905 22 254 0.0 0.0 0.00 0.00 0.00 31 1008.4
20260502053405 23 255 0.0 0.0 0.00 0.00 0.00 31 1008.3
20260502052904 23 255 0.0 0.0 0.00 0.00 0.00 31 1008.3
20260502052404 23 254 0.0 0.0 0.00 0.00 0.00 31 1008.3
20260502051903 23 255 0.0 0.0 0.00 0.00 0.00 30 1008.3
20260502051404 23 255 0.0 0.0 0.00 0.00 0.00 30 1008.2
20260502050904 23 255 0.0 0.0 0.00 0.00 0.00 30 1008.2
20260502045904 24 255 0.0 0.0 0.00 0.00 0.00 29 1008.1
20260502045404 23 255 0.0 0.0 0.00 0.00 0.00 29 1008.1
20260502044904 24 255 0.0 0.0 0.00 0.00 0.00 29 1008.1
20260502044404 24 254 0.0 0.0 0.00 0.00 0.00 29 1008.1
20260502043905 24 257 0.0 0.0 0.00 0.00 0.00 28 1008.1
20260502043404 24 255 0.0 0.0 0.00 0.00 0.00 28 1008.1
20260502042904 24 255 0.0 0.0 0.00 0.00 0.00 28 1008.1
20260502042404 25 255 0.0 0.0 0.00 0.00 0.00 28 1007.9
20260502041904 25 254 0.0 0.0 0.00 0.00 0.00 28 1007.9
20260502040903 25 255 0.0 0.0 0.00 0.00 0.00 27 1007.8
20260502034904 25 254 0.0 0.0 0.00 0.00 0.00 27 1007.7
20260502034404 25 254 0.0 0.0 0.00 0.00 0.00 26 1007.6
20260502033904 26 254 0.0 0.0 0.00 0.00 0.00 26 1007.6
20260502033404 26 255 0.0 0.0 0.00 0.00 0.00 26 1007.6
20260502032903 26 254 0.0 0.0 0.00 0.00 0.00 25 1007.4
20260502031903 26 254 0.0 0.0 0.00 0.00 0.00 25 1007.2
20260502031404 26 255 0.0 0.0 0.00 0.00 0.00 25 1007.2
20260502030904 27 255 0.0 0.0 0.00 0.00 0.00 25 1007.1
20260502030403 27 254 0.0 0.0 0.00 0.00 0.00 24 1007.0
20260502025904 27 255 0.0 0.0 0.00 0.00 0.00 24 1007.1
20260502025404 27 254 0.0 0.0 0.00 0.00 0.00 24 1007.0
20260502024404 27 255 0.0 0.0 0.00 0.00 0.00 24 1007.0
20260502023904 28 255 0.0 0.0 0.00 0.00 0.00 23 1006.8
20260502023404 28 254 0.0 0.0 0.00 0.00 0.00 23 1006.7
20260502022904 28 255 0.0 0.0 0.00 0.00 0.00 23 1006.5
20260502022403 28 254 0.0 0.0 0.00 0.00 0.00 23 1006.5
20260502021904 28 255 0.0 0.0 0.00 0.00 0.00 22 1006.5
20260502021403 28 254 0.0 0.0 0.00 0.00 0.00 22 1006.4
20260502020904 28 254 0.0 0.0 0.00 0.00 0.00 22 1006.4
20260502020404 28 254 0.0 0.0 0.00 0.00 0.00 21 1006.4
20260502015404 29 254 0.0 0.0 0.00 0.00 0.00 21 1006.6
20260502014904 29 254 0.0 0.0 0.00 0.00 0.00 22 1006.5
20260502014404 29 254 0.0 0.0 0.00 0.00 0.00 22 1006.5
20260502013903 29 254 0.0 0.0 0.00 0.00 0.00 22 1006.5
20260502013404 29 254 0.0 0.0 0.00 0.00 0.00 22 1006.5
20260502012903 29 254 0.0 0.0 0.00 0.00 0.00 22 1006.5
20260502012403 30 254 0.0 0.0 0.00 0.00 0.00 22 1006.4
20260502011903 30 254 0.0 0.0 0.00 0.00 0.00 23 1006.4
20260502011404 30 254 0.0 0.0 0.00 0.00 0.00 23 1006.5
20260502010904 30 254 0.0 0.0 0.00 0.00 0.00 23 1006.4
20260502010403 30 254 0.0 0.0 0.00 0.00 0.00 23 1006.5
20260502005904 30 254 0.0 0.0 0.00 0.00 0.00 23 1006.7
20260502005404 30 254 0.0 0.0 0.00 0.00 0.00 23 1006.7
20260502004904 30 254 0.0 0.0 0.00 0.00 0.00 23 1006.8
20260502004404 30 254 0.0 0.0 0.00 0.00 0.00 23 1006.7
20260502003903 30 254 0.0 0.0 0.00 0.00 0.00 22 1006.8
20260502003404 30 255 0.0 0.0 0.00 0.00 0.00 22 1006.7
20260502002403 30 256 0.0 0.0 0.00 0.00 0.00 23 1006.7
20260502001903 30 255 0.0 0.0 0.00 0.00 0.00 22 1006.7
20260502001403 30 255 0.0 0.0 0.00 0.00 0.00 23 1006.8
20260502000904 30 256 0.0 0.0 0.00 0.00 0.00 22 1006.9
20260502000404 30 256 0.0 1.6 0.00 0.00 0.00 22 1006.9
20260501235904 30 255 0.0 0.0 0.00 0.00 0.00 22 1006.8
20260501235404 30 255 0.0 0.0 0.00 0.00 0.00 22 1006.9
20260501234903 30 255 0.0 0.0 0.00 0.00 0.00 22 1006.9
20260501234404 30 255 0.0 0.0 0.00 0.00 0.00 22 1006.9
20260501233404 30 255 0.0 0.0 0.00 0.00 0.00 21 1006.9
20260501232904 30 256 0.0 1.6 0.00 0.00 0.00 21 1007.0
20260501232404 30 255 0.0 0.0 0.00 0.00 0.00 22 1007.0
20260501231404 30 252 0.0 0.0 0.00 0.00 0.00 21 1007.1
20260501230404 30 252 0.0 1.6 0.00 0.00 0.00 22 1007.1
20260501225903 30 257 0.0 0.0 0.00 0.00 0.00 23 1007.0
20260501225403 30 257 0.0 0.0 0.00 0.00 0.00 23 1007.1
20260501224904 30 257 0.0 1.6 0.00 0.00 0.00 24 1007.0
20260501223904 30 260 0.0 0.0 0.00 0.00 0.00 24 1007.2
20260501223403 30 260 0.0 0.0 0.00 0.00 0.00 24 1007.3
20260501222904 30 259 0.0 1.6 0.00 0.00 0.00 23 1007.4
20260501221904 30 262 0.0 1.6 0.00 0.00 0.00 24 1007.5
20260501221404 30 261 0.0 0.0 0.00 0.00 0.00 24 1007.5
20260501220904 30 261 0.0 8.0 0.00 0.00 0.00 24 1007.5
20260501215904 29 261 0.0 1.6 0.00 0.00 0.00 25 1007.7
20260501215404 29 261 0.0 3.2 0.00 0.00 0.00 25 1007.8
20260501214903 29 265 0.0 3.2 0.00 0.00 0.00 25 1007.9
20260501214404 29 266 0.0 0.0 0.00 0.00 0.00 25 1008.0
20260501213903 29 266 1.6 11.3 0.00 0.00 0.00 25 1008.0
20260501213404 29 266 0.0 1.6 0.00 0.00 0.00 25 1008.1
20260501212403 29 267 0.0 0.0 0.00 0.00 0.00 25 1008.2
20260501211904 29 275 0.0 1.6 0.00 0.00 0.00 26 1008.3
20260501211404 28 275 0.0 3.2 0.00 0.00 0.00 26 1008.3
20260501210905 28 267 0.0 4.8 0.00 0.00 0.00 26 1008.4
20260501210405 29 253 0.0 0.0 0.00 0.00 0.00 26 1008.5
20260501205904 29 253 0.0 0.0 0.00 0.00 0.00 26 1008.4
20260501205404 29 253 0.0 3.2 0.00 0.00 0.00 26 1008.4
20260501204904 29 255 0.0 1.6 0.00 0.00 0.00 26 1008.5
20260501204405 28 255 0.0 0.0 0.00 0.00 0.00 26 1008.7
20260501203904 28 254 0.0 0.0 0.00 0.00 0.00 27 1008.7
20260501203404 28 254 0.0 0.0 0.00 0.00 0.00 27 1008.8
20260501202905 28 255 0.0 0.0 0.00 0.00 0.00 27 1008.7
20260501201905 28 255 0.0 0.0 0.00 0.00 0.00 27 1008.9
20260501201404 28 255 0.0 0.0 0.00 0.00 0.00 28 1009.0
20260501200904 28 255 0.0 1.6 0.00 0.00 0.00 28 1009.1
20260501200406 28 254 0.0 0.0 0.00 0.00 0.00 28 1009.1
20260501195904 28 255 0.0 0.0 0.00 0.00 0.00 28 1008.9
20260501195405 28 255 0.0 4.8 0.00 0.00 0.00 28 1008.9
20260501194904 28 264 0.0 0.0 0.00 0.00 0.00 28 1009.0
20260501194405 28 264 0.0 4.8 0.00 0.00 0.00 28 1009.1
20260501193905 28 264 0.0 3.2 0.00 0.00 0.00 28 1009.1
20260501193405 28 264 0.0 1.6 0.00 0.00 0.00 28 1009.2
20260501192904 28 264 0.0 1.6 0.00 0.00 0.00 28 1009.2
20260501191904 27 264 0.0 1.6 0.00 0.00 0.00 29 1009.5
20260501191404 27 264 0.0 0.0 0.00 0.00 0.00 29 1009.6
20260501190904 27 264 0.0 0.0 0.00 0.00 0.00 29 1009.7
20260501190405 27 258 0.0 8.0 0.00 0.00 0.00 30 1009.7
20260501185404 27 246 0.0 0.0 0.00 0.00 0.00 30 1009.8
20260501184906 27 246 0.0 0.0 0.00 0.00 0.00 30 1009.9
20260501184405 27 246 0.0 0.0 0.00 0.00 0.00 31 1009.9
20260501183405 27 246 0.0 0.0 0.00 0.00 0.00 31 1010.2
20260501182905 27 246 1.6 8.0 0.00 0.00 0.00 31 1010.1
20260501182405 27 232 0.0 0.0 0.00 0.00 0.00 30 1010.2
20260501181905 27 232 0.0 4.8 0.00 0.00 0.00 31 1010.4
20260501181404 26 232 0.0 0.0 0.00 0.00 0.00 31 1010.5
20260501180904 26 232 0.0 1.6 0.00 0.00 0.00 31 1010.5
20260501180405 27 232 0.0 0.0 0.00 0.00 0.00 31 1010.6
20260501175904 27 232 0.0 0.0 0.00 0.00 0.00 31 1010.5
20260501175405 26 232 0.0 0.0 0.00 0.00 0.00 32 1010.6
20260501174905 26 232 0.0 0.0 0.00 0.00 0.00 32 1010.6
20260501174405 26 232 0.0 0.0 0.00 0.00 0.00 32 1010.6
20260501173905 26 223 0.0 0.0 0.00 0.00 0.00 33 1010.7
20260501173404 26 223 0.0 0.0 0.00 0.00 0.00 33 1010.8
20260501172905 25 223 0.0 0.0 0.00 0.00 0.00 33 1010.8
20260501172404 25 223 0.0 0.0 0.00 0.00 0.00 33 1010.9
20260501171904 25 223 0.0 0.0 0.00 0.00 0.00 33 1010.9
20260501170904 25 223 0.0 0.0 0.00 0.00 0.00 33 1010.9
20260501170404 25 223 0.0 0.0 0.00 0.00 0.00 33 1010.9
20260501165904 26 223 0.0 0.0 0.00 0.00 0.00 33 1010.8
20260501165405 25 223 0.0 0.0 0.00 0.00 0.00 34 1010.8
20260501164904 25 223 0.0 0.0 0.00 0.00 0.00 35 1010.7
20260501163904 25 223 0.0 0.0 0.00 0.00 0.00 35 1010.8
20260501163404 24 223 0.0 0.0 0.00 0.00 0.00 36 1010.9
20260501162904 24 223 0.0 0.0 0.00 0.00 0.00 36 1010.9
20260501161905 25 223 0.0 0.0 0.00 0.00 0.00 35 1010.9
20260501161404 25 223 0.0 0.0 0.00 0.00 0.00 36 1010.9
20260501160905 24 223 0.0 0.0 0.00 0.00 0.00 37 1010.8
20260501160404 24 223 0.0 0.0 0.00 0.00 0.00 38 1010.8
20260501155904 23 223 0.0 0.0 0.00 0.00 0.00 38 1010.6
20260501154904 23 223 0.0 0.0 0.00 0.00 0.00 39 1010.6
20260501154404 23 223 0.0 0.0 0.00 0.00 0.00 39 1010.6
20260501153904 23 223 0.0 0.0 0.00 0.00 0.00 39 1010.6
20260501153405 23 223 0.0 0.0 0.00 0.00 0.00 40 1010.6
20260501152905 23 223 0.0 0.0 0.00 0.00 0.00 39 1010.5
20260501151904 23 223 0.0 0.0 0.00 0.00 0.00 39 1010.4
20260501151404 23 223 0.0 0.0 0.00 0.00 0.00 40 1010.3
20260501150904 22 223 0.0 0.0 0.00 0.00 0.00 40 1010.3
20260501150405 22 223 0.0 1.6 0.00 0.00 0.00 40 1010.2
20260501145904 22 223 0.0 0.0 0.00 0.00 0.00 41 1010.2
20260501145404 22 223 0.0 4.8 0.00 0.00 0.00 41 1010.2
20260501144404 22 223 0.0 0.0 0.00 0.00 0.00 41 1010.1
20260501143905 22 223 0.0 0.0 0.00 0.00 0.00 41 1010.0
20260501142905 21 223 0.0 0.0 0.00 0.00 0.00 41 1010.0